• en Suisse
  • Liste des pays
  • À 7 jours
  • Température de l'eau
  • Carte satellitaire
  • Carte météo
  • Widgets météo
  • user-avatar
    Se connecter

    Météo par heure à Serednya

    Ce jour, 25 Avril, Mercredi

    Heure Température Précipitation Vent Pression Humidité
    00:00 +10°C° 0 mm 2 m/s 739 mmHg 75%
    01:00 +10°C° 0 mm 2 m/s 739 mmHg 75%
    02:00 +10°C° 0 mm 2 m/s 739 mmHg 76%
    03:00 +10°C° 0 mm 2 m/s 739 mmHg 77%
    04:00 +10°C° 0 mm 3 m/s 739 mmHg 79%
    05:00 +10°C° 0 mm 3 m/s 739 mmHg 80%
    06:00 +12°C° 0 mm 3 m/s 739 mmHg 76%
    07:00 +13°C° 0 mm 4 m/s 739 mmHg 72%
    08:00 +15°C° 0 mm 4 m/s 739 mmHg 67%
    09:00 +16°C° 0 mm 5 m/s 739 mmHg 63%
    10:00 +19°C° 0 mm 5 m/s 739 mmHg 60%
    11:00 +20°C° 0 mm 6 m/s 739 mmHg 56%
    12:00 +20°C° 0,1 mm 6 m/s 738 mmHg 55%
    13:00 +21°C° 0,1 mm 5 m/s 738 mmHg 54%
    14:00 +21°C° 0,1 mm 5 m/s 738 mmHg 54%
    15:00 +21°C° 0,1 mm 5 m/s 737 mmHg 55%
    16:00 +21°C° 0,1 mm 4 m/s 737 mmHg 56%
    17:00 +21°C° 0,1 mm 4 m/s 736 mmHg 57%
    18:00 +20°C° 0,1 mm 4 m/s 736 mmHg 63%
    19:00 +19°C° 0,1 mm 4 m/s 735 mmHg 68%
    20:00 +17°C° 0,1 mm 4 m/s 735 mmHg 74%
    21:00 +17°C° 0,2 mm 4 m/s 735 mmHg 76%
    22:00 +16°C° 0,2 mm 5 m/s 735 mmHg 78%
    23:00 +15°C° 0,2 mm 5 m/s 735 mmHg 80%

    Demain, 26 Avril, Jeudi

    Heure Température Précipitation Vent Pression Humidité
    00:00 +15°C° 0 mm 5 m/s 735 mmHg 82%
    01:00 +14°C° 0 mm 4 m/s 735 mmHg 84%
    02:00 +14°C° 0 mm 4 m/s 736 mmHg 86%
    03:00 +14°C° 0 mm 4 m/s 736 mmHg 87%
    04:00 +13°C° 0 mm 3 m/s 736 mmHg 88%
    05:00 +13°C° 0 mm 3 m/s 736 mmHg 88%
    06:00 +14°C° 0 mm 4 m/s 736 mmHg 83%
    07:00 +15°C° 0 mm 5 m/s 737 mmHg 78%
    08:00 +16°C° 0 mm 5 m/s 737 mmHg 73%
    09:00 +17°C° 0 mm 5 m/s 738 mmHg 67%
    10:00 +19°C° 0 mm 5 m/s 738 mmHg 62%
    11:00 +19°C° 0 mm 5 m/s 738 mmHg 57%
    12:00 +20°C° 0,1 mm 5 m/s 738 mmHg 55%
    13:00 +20°C° 0,1 mm 5 m/s 739 mmHg 53%
    14:00 +20°C° 0,1 mm 5 m/s 739 mmHg 52%
    15:00 +19°C° 0 mm 4 m/s 738 mmHg 56%
    16:00 +19°C° 0 mm 3 m/s 738 mmHg 60%
    17:00 +18°C° 0 mm 3 m/s 738 mmHg 64%
    18:00 +17°C° 0,3 mm 2 m/s 738 mmHg 68%
    19:00 +16°C° 0,3 mm 2 m/s 739 mmHg 72%
    20:00 +15°C° 0,3 mm 1 m/s 739 mmHg 76%
    21:00 +14°C° 0,1 mm 1 m/s 739 mmHg 78%
    22:00 +14°C° 0,1 mm 1 m/s 739 mmHg 80%
    23:00 +14°C° 0,1 mm 2 m/s 739 mmHg 81%

    Après-demain, 27 Avril, Vendredi

    Heure Température Précipitation Vent Pression Humidité
    00:00 +13°C° 0 mm 2 m/s 739 mmHg 84%
    01:00 +12°C° 0 mm 2 m/s 739 mmHg 87%
    02:00 +12°C° 0 mm 2 m/s 739 mmHg 89%
    03:00 +10°C° 0 mm 2 m/s 739 mmHg 89%
    04:00 +10°C° 0 mm 2 m/s 739 mmHg 88%
    05:00 +10°C° 0 mm 2 m/s 740 mmHg 87%
    06:00 +11°C° 0,2 mm 3 m/s 740 mmHg 83%
    07:00 +11°C° 0,2 mm 3 m/s 740 mmHg 78%
    08:00 +12°C° 0,2 mm 3 m/s 741 mmHg 74%
    09:00 +13°C° 0,2 mm 4 m/s 741 mmHg 68%
    10:00 +14°C° 0,2 mm 5 m/s 741 mmHg 63%
    11:00 +15°C° 0,2 mm 5 m/s 741 mmHg 57%
    12:00 +15°C° 0,1 mm 5 m/s 741 mmHg 53%
    13:00 +16°C° 0,1 mm 6 m/s 741 mmHg 49%
    14:00 +16°C° 0,1 mm 6 m/s 741 mmHg 45%
    15:00 +16°C° 0 mm 6 m/s 741 mmHg 45%
    16:00 +16°C° 0 mm 5 m/s 741 mmHg 46%
    17:00 +16°C° 0 mm 5 m/s 741 mmHg 47%
    18:00 +14°C° 0 mm 4 m/s 742 mmHg 51%
    19:00 +13°C° 0 mm 3 m/s 742 mmHg 56%
    20:00 +12°C° 0 mm 2 m/s 743 mmHg 61%
    21:00 +10°C° 0 mm 2 m/s 743 mmHg 63%
    22:00 +10°C° 0 mm 2 m/s 744 mmHg 65%
    23:00 +10°C° 0 mm 1 m/s 744 mmHg 66%

    28 Avril, Samedi

    Heure Température Précipitation Vent Pression Humidité
    00:00 +9°C° 0 mm 1 m/s 744 mmHg 68%
    01:00 +9°C° 0 mm 1 m/s 744 mmHg 69%
    02:00 +8°C° 0 mm 0 m/s 745 mmHg 70%
    03:00 +8°C° 0 mm 1 m/s 745 mmHg 71%
    04:00 +8°C° 0 mm 1 m/s 745 mmHg 71%
    05:00 +8°C° 0 mm 1 m/s 745 mmHg 72%
    06:00 +9°C° 0 mm 2 m/s 745 mmHg 68%
    07:00 +12°C° 0 mm 2 m/s 745 mmHg 64%
    08:00 +13°C° 0 mm 3 m/s 746 mmHg 60%
    09:00 +14°C° 0 mm 3 m/s 746 mmHg 55%
    10:00 +17°C° 0 mm 3 m/s 746 mmHg 50%
    11:00 +18°C° 0 mm 3 m/s 746 mmHg 45%
    12:00 +19°C° 0 mm 4 m/s 745 mmHg 44%
    13:00 +20°C° 0 mm 4 m/s 745 mmHg 44%
    14:00 +20°C° 0 mm 4 m/s 745 mmHg 43%
    15:00 +20°C° 0 mm 4 m/s 744 mmHg 46%
    16:00 +20°C° 0 mm 4 m/s 744 mmHg 49%
    17:00 +20°C° 0 mm 4 m/s 744 mmHg 52%
    18:00 +19°C° 0 mm 4 m/s 744 mmHg 59%
    19:00 +17°C° 0 mm 4 m/s 744 mmHg 65%
    20:00 +14°C° 0 mm 4 m/s 743 mmHg 72%
    21:00 +14°C° 0 mm 4 m/s 744 mmHg 71%
    22:00 +13°C° 0 mm 4 m/s 744 mmHg 71%
    23:00 +13°C° 0 mm 4 m/s 744 mmHg 70%

    29 Avril, Dimanche

    Heure Température Précipitation Vent Pression Humidité
    00:00 +13°C° 0 mm 4 m/s 744 mmHg 69%
    01:00 +13°C° 0 mm 4 m/s 743 mmHg 68%
    02:00 +12°C° 0 mm 4 m/s 743 mmHg 67%
    03:00 +12°C° 0 mm 4 m/s 743 mmHg 68%
    04:00 +12°C° 0 mm 4 m/s 743 mmHg 69%
    05:00 +11°C° 0 mm 4 m/s 743 mmHg 70%
    06:00 +13°C° 0 mm 5 m/s 743 mmHg 65%
    07:00 +14°C° 0 mm 5 m/s 744 mmHg 61%
    08:00 +16°C° 0 mm 6 m/s 744 mmHg 57%
    09:00 +17°C° 0 mm 6 m/s 744 mmHg 53%
    10:00 +20°C° 0 mm 6 m/s 744 mmHg 49%
    11:00 +21°C° 0 mm 6 m/s 744 mmHg 45%
    12:00 +22°C° 0 mm 6 m/s 744 mmHg 44%
    13:00 +23°C° 0 mm 6 m/s 743 mmHg 42%
    14:00 +23°C° 0 mm 5 m/s 743 mmHg 40%
    15:00 +23°C° 0 mm 5 m/s 743 mmHg 43%
    16:00 +23°C° 0 mm 5 m/s 742 mmHg 46%
    17:00 +22°C° 0 mm 4 m/s 742 mmHg 48%
    18:00 +20°C° 0 mm 4 m/s 742 mmHg 55%
    19:00 +18°C° 0 mm 3 m/s 742 mmHg 62%
    20:00 +16°C° 0 mm 3 m/s 742 mmHg 68%
    21:00 +16°C° 0 mm 3 m/s 742 mmHg 70%
    22:00 +14°C° 0 mm 3 m/s 742 mmHg 72%
    23:00 +14°C° 0 mm 4 m/s 742 mmHg 73%

    30 Avril, Lundi

    Heure Température Précipitation Vent Pression Humidité
    00:00 +13°C° 0 mm 4 m/s 742 mmHg 74%
    01:00 +12°C° 0 mm 4 m/s 742 mmHg 74%
    02:00 +12°C° 0 mm 4 m/s 742 mmHg 74%
    03:00 +11°C° 0 mm 4 m/s 742 mmHg 74%
    04:00 +11°C° 0 mm 4 m/s 742 mmHg 73%
    05:00 +10°C° 0 mm 4 m/s 742 mmHg 73%
    06:00 +12°C° 0 mm 4 m/s 742 mmHg 68%
    07:00 +14°C° 0 mm 5 m/s 742 mmHg 64%
    08:00 +15°C° 0 mm 6 m/s 742 mmHg 60%
    09:00 +17°C° 0 mm 6 m/s 742 mmHg 55%
    10:00 +20°C° 0 mm 6 m/s 742 mmHg 51%
    11:00 +21°C° 0 mm 6 m/s 742 mmHg 46%
    12:00 +22°C° 0 mm 6 m/s 742 mmHg 45%
    13:00 +23°C° 0 mm 6 m/s 741 mmHg 44%
    14:00 +23°C° 0 mm 6 m/s 741 mmHg 42%
    15:00 +23°C° 0 mm 5 m/s 741 mmHg 45%
    16:00 +23°C° 0 mm 5 m/s 740 mmHg 48%
    17:00 +23°C° 0 mm 5 m/s 740 mmHg 51%
    18:00 +21°C° 0 mm 4 m/s 740 mmHg 57%
    19:00 +19°C° 0 mm 4 m/s 740 mmHg 64%
    20:00 +17°C° 0 mm 4 m/s 740 mmHg 70%
    21:00 +17°C° 0 mm 4 m/s 740 mmHg 71%
    22:00 +15°C° 0 mm 4 m/s 740 mmHg 71%
    23:00 +15°C° 0 mm 4 m/s 740 mmHg 72%
    Voir plus